Location: Bagnara
(41.0500°N, 14.7833°E)
Time: 21:31:04
(UTC+00:00)

ATLAS 5 CENTAUR R/B - Pass Details

Date: 27 October 2021
Orbit: 497 x 1159 km, 63.4° (Epoch: 25 November)

Event Time Altitude Azimuth Distance (km) Brightness Sun altitude
Rises 16:51:42 0° 274° (W) 2,650 6.7 -9.8°
Reaches altitude 10° 16:55:20 10° 311° (NW) 1,856 4.6 -10.5°
Maximum altitude 16:56:40 11° 330° (NNW) 1,814 4.3 -10.7°
Drops below altitude 10° 16:58:04 10° 349° (NNW) 1,947 4.2 -11.0°
Sets 17:02:12 0° 23° (NNE) 3,022 4.8 -11.8°
